Regional Weather Roundup
Issued by NWS

Home | Current Version | Previous Version | Graphics & Text | Print | Product List | Glossary On
Versions: 1 2 3 4 5 6 7 8 9 10 11 12 13 14 15 16 17 18 19 20 21 22 23 24 25 26 27 28 29 30 31 32 33 34 35 36 37 38 39 40 41 42 43 44 45 46 47 48 49 50
000
ASUS43 KLMK 240910
RWRKY
KENTUCKY REGIONAL WEATHER ROUNDUP
NATIONAL WEATHER SERVICE LOUISVILLE KY
500 AM EDT SUN MAY 24 2015

NOTE "FAIR" INDICATES FEW OR NO CLOUDS BELOW 12,000 FEET
WITH NO SIGNIFICANT WEATHER AND/OR OBSTRUCTIONS TO VISIBILITY.

KYZ001>023-026-027-061>063-070>075-241000-
WESTERN AND SOUTH CENTRAL KENTUCKY

CITY           SKY/WX    TMP DP  RH WIND       PRES   REMARKS
PADUCAH        PTCLDY    63  56  78 SE7       30.13F
HENDERSON      MOCLDY    64  50  59 SE5       30.16S
OWENSBORO      MOCLDY    64  55  72 SE6       30.19F
HOPKINSVILLE   CLEAR     65  56  74 SE6       30.19S
BOWLING GREEN  MOCLDY    58  54  86 CALM      30.23S
GLASGOW        CLEAR     63  50  63 CALM      30.25S
$$

KYZ024-025-028>034-038-045-046-053-241000-
NORTH CENTRAL KENTUCKY

CITY           SKY/WX    TMP DP  RH WIND       PRES   REMARKS
LOUISVILLE/SDF MOCLDY    63  53  70 SE5       30.24R
LOUISVILLE/LOU MOCLDY    64  52  64 CALM      30.25R
FORT KNOX      MOCLDY    60  53  79 E6        30.23R
$$

KYZ035>037-039>044-047>052-055>060-089>105-241000-
NORTHEAST KENTUCKY

CITY           SKY/WX    TMP DP  RH WIND       PRES   REMARKS
LEXINGTON      MOCLDY    63  50  62 SE7       30.28R
COVINGTON      CLEAR     61  48  62 S8        30.27R
FRANKFORT      CLOUDY    60  50  69 CALM      30.26R
$$

KYZ054-064>069-076>088-106>120-241000-
SOUTHEAST KENTUCKY

CITY           SKY/WX    TMP DP  RH WIND       PRES   REMARKS
JACKSON        CLEAR     61  48  62 SE3       30.31R
LONDON         MOCLDY    57  50  77 CALM      30.30R
SOMERSET       CLOUDY    54  54 100 CALM      30.31R
MIDDLESBORO    MOCLDY    52  52  99 CALM      30.33R
MONTICELLO     SUNNY     56  53  89 CALM      30.32R
$$




USA.gov is the U.S. government's official web portal to all federal, state and local government web resources and services.